Starlink 34075

operational
NORAD ID: 63917 Int'l Des: 2025-095 Owner: SPXS Country: US Constellation: starlink
LEOCIRCULAR

About Starlink 34075

Description loading...

Live Position

Loading 3D Globe...

Upcoming Passes

Altitude History

Altitude vs Time

uPlot chart will show altitude changes over time

Two-Line Element Set

1 63917U 25095AD 25312.61627400 .00080249 00000-0 28887-2 0 9994
2 63917 43.0013 139.7590 0002799 267.7721 92.2810 15.27639990 29264
Epoch: Nov 8, 2025 • Age: 40 hours

Current Status

Altitude 493.1 km
Velocity 7.62 km/s
Sub-Earth Point -42.11°S, 102.71°W
Launch Date May 10, 2025
Age 0.5 years
Type internet

Technical Details

Classification Payload
Mass 575.00 kg
Dry Mass 530.00 kg
Total Mass 575.00 kg
Length 0.30 m
Diameter 4.10 m
Span 29.00 m
Shape Box + pan
Manufacturer SPXS
Bus Type Starlink V2MO
Phase Status In Orbit
Owner/State SPXS/US

Large Constellations

Loading constellations...